Location: Asheville, NC
(35.6000°N, 82.5500°W)
Time: 18:34:19
(UTC-04:00)

Vanguard 1 Rocket - Pass Details

Date: 11 February 2018
Orbit: 652 x 4225 km, 34.3° (Epoch: 20 May)

Event Time Altitude Azimuth Distance (km) Brightness Sun altitude
Rises 01:31:15 0° 240° (WSW) 7,777 - -66.0°
Reaches altitude 10° 01:36:07 10° 239° (WSW) 7,026 - -65.5°
Maximum altitude 02:02:04 75° 159° (SSE) 4,182 - -62.3°
Exits shadow 02:09:14 57° 96° (E) 4,274 10.5 -61.2°
Drops below altitude 10° 02:23:00 10° 80° (E) 5,896 11.8 -59.1°
Sets 02:26:38 0° 78° (ENE) 6,544 12.2 -58.5°
